Hourly Data Report for April 13, 2021

NANAIMO A
BRITISH COLUMBIA
Current Station Operator: NAVCAN

49°03'16.000" N
123°52'12.000" W
28.00 m
1025365
YCD

Download Data

Hourly Data (April 2021)
Hourly Data Report for April 13, 2021
TIME
LST
Temp Definition
°C
Dew Point Definition
°C
Rel Hum Definition
%
Precip. Amount Definition
mm

Wind Dir Definition
10's deg

Wind Spd Definition
km/h
Visibility Definition
km
Stn Press Definition
kPa
Hmdx Definition


Wind Chill Definition


Weather Definition


00:00 3.9 -3.0 60 LegendMM 26 12 LegendMM 102.57     LegendNANA
01:00 3.5 -3.4 61 LegendMM 29 9 LegendMM 102.61     LegendNANA
02:00 0.1 -4.4 72 LegendMM 21 3 LegendMM 102.61     LegendNANA
03:00 1.2 -3.9 68 LegendMM 22 4 LegendMM 102.64     LegendNANA
04:00 0.9 -4.3 68 LegendMM 26 5 LegendMM 102.62     LegendNANA
05:00 1.4 -3.6 69 LegendMM 31 1 LegendMM 102.64     LegendNANA
06:00 0.2 -3.6 76 LegendMM 27 5 LegendMM 102.69     LegendNANA
07:00 5.7 -2.3 56 LegendMM 27 5 LegendMM 102.69     LegendNANA
08:00 9.7 -1.5 45 LegendMM 33 4 LegendMM 102.69     LegendNANA
09:00 13.5 0.6 41 LegendMM 2 9 LegendMM 102.67     LegendNANA
10:00 14.8 -3.0 29 LegendMM 36 16 LegendMM 102.67     LegendNANA
11:00 15.2 -3.4 27 LegendMM 1 13 LegendMM 102.64     LegendNANA
12:00 16.2 -5.0 23 LegendMM 3 13 LegendMM 102.59     LegendNANA
13:00 16.8 -3.0 25 LegendMM 1 8 LegendMM 102.52     LegendNANA
14:00 17.4 -4.4 22 LegendMM 1 15 LegendMM 102.47     LegendNANA
15:00 17.6 -3.6 23 LegendMM 1 13 LegendMM 102.41     LegendNANA
16:00 17.5 -3.7 23 LegendMM 36 16 LegendMM 102.37     LegendNANA
17:00 17.1 -6.9 19 LegendMM 35 16 LegendMM 102.32     LegendNANA
18:00 16.8 -7.1 19 LegendMM 33 12 LegendMM 102.27     LegendNANA
19:00 12.7 -3.7 31 LegendMM 26 4 LegendMM 102.27     LegendNANA
20:00 10.6 -3.4 37 LegendMM 25 8 LegendMM 102.28     LegendNANA
21:00 7.9 -3.0 46 LegendMM 27 4 LegendMM 102.27     LegendNANA
22:00 8.9 -4.4 39 LegendMM 27 12 LegendMM 102.26     LegendNANA
23:00 8.4 -4.3 40 LegendMM 27 14 LegendMM 102.24     LegendNANA

Notes on Data Quality.

Legend

  • E = Estimated
  • M = Missing
  • NA = Not Available*
  • [empty] = Indicates an unobserved value
Date modified: